Time,TemperatureF,DewpointF,PressureIn,WindDirection,WindDirectionDegrees,WindSpeedMPH,WindSpeedGustMPH,Humidity,HourlyPrecipIn,Conditions,Clouds,dailyrainin,SolarRadiationWatts/m^2,SoftwareType,DateUTC
2013-08-06 00:43:00,60.0,29.0,-100.00,SW,231,4.0,9.0,31,0.00,,,0.00,1.000000,,2013-08-06 06:43:00,
2013-08-06 00:52:00,60.0,29.0,-100.00,SW,231,4.0,9.0,31,0.00,,,0.00,1.000000,,2013-08-06 06:52:00,
2013-08-06 01:32:00,55.0,29.0,-100.00,SW,217,3.0,10.0,37,0.00,,,0.00,1.000000,,2013-08-06 07:32:00,
2013-08-06 01:43:00,55.0,29.0,-100.00,SW,217,3.0,10.0,37,0.00,,,0.00,1.000000,,2013-08-06 07:43:00,
2013-08-06 01:53:00,55.0,29.0,-100.00,SW,217,3.0,10.0,37,0.00,,,0.00,1.000000,,2013-08-06 07:53:00,
2013-08-06 02:33:00,52.0,29.0,-100.00,SSE,162,3.0,11.0,41,0.00,,,0.00,1.000000,,2013-08-06 08:33:00,
2013-08-06 02:43:00,52.0,29.0,-100.00,SSE,162,3.0,11.0,41,0.00,,,0.00,1.000000,,2013-08-06 08:43:00,
2013-08-06 02:52:00,52.0,29.0,-100.00,SSE,162,3.0,11.0,41,0.00,,,0.00,1.000000,,2013-08-06 08:52:00,
2013-08-06 03:32:00,52.0,29.0,-100.00,ESE,110,3.0,10.0,41,0.00,,,0.00,1.000000,,2013-08-06 09:32:00,
2013-08-06 03:43:00,52.0,29.0,-100.00,ESE,110,3.0,10.0,41,0.00,,,0.00,1.000000,,2013-08-06 09:43:00,
2013-08-06 03:52:00,52.0,29.0,-100.00,ESE,110,3.0,10.0,41,0.00,,,0.00,1.000000,,2013-08-06 09:52:00,
2013-08-06 04:22:00,46.0,31.0,-100.00,North,359,4.0,9.0,55,0.00,,,0.00,1.000000,,2013-08-06 10:22:00,
2013-08-06 04:32:00,46.0,31.0,-100.00,North,359,4.0,9.0,55,0.00,,,0.00,1.000000,,2013-08-06 10:32:00,
2013-08-06 04:43:00,46.0,31.0,-100.00,North,359,4.0,9.0,55,0.00,,,0.00,1.000000,,2013-08-06 10:43:00,
2013-08-06 04:52:00,46.0,31.0,-100.00,North,359,4.0,9.0,55,0.00,,,0.00,1.000000,,2013-08-06 10:52:00,
2013-08-06 05:21:00,48.0,32.0,-100.00,North,351,4.0,9.0,54,0.00,,,0.00,0.000000,,2013-08-06 11:21:00,
2013-08-06 05:32:00,48.0,32.0,-100.00,North,351,4.0,9.0,54,0.00,,,0.00,0.000000,,2013-08-06 11:32:00,
2013-08-06 05:43:00,48.0,32.0,-100.00,North,351,4.0,9.0,54,0.00,,,0.00,0.000000,,2013-08-06 11:43:00,
2013-08-06 05:53:00,48.0,32.0,-100.00,North,351,4.0,9.0,54,0.00,,,0.00,0.000000,,2013-08-06 11:53:00,
2013-08-06 06:43:00,44.0,31.0,-100.00,North,4,3.0,8.0,60,0.00,,,0.00,1.000000,,2013-08-06 12:43:00,
2013-08-06 06:52:00,44.0,31.0,-100.00,North,4,3.0,8.0,60,0.00,,,0.00,1.000000,,2013-08-06 12:52:00,
2013-08-06 10:22:00,68.0,33.0,-100.00,ESE,121,3.0,6.0,27,0.00,,,0.00,531.000000,,2013-08-06 16:22:00,
2013-08-06 10:32:00,68.0,33.0,-100.00,ESE,121,3.0,6.0,27,0.00,,,0.00,531.000000,,2013-08-06 16:32:00,
2013-08-06 10:42:00,68.0,33.0,-100.00,ESE,121,3.0,6.0,27,0.00,,,0.00,531.000000,,2013-08-06 16:42:00,
2013-08-06 10:52:00,68.0,33.0,-100.00,ESE,121,3.0,6.0,27,0.00,,,0.00,531.000000,,2013-08-06 16:52:00,
2013-08-06 11:43:00,73.0,32.0,-100.00,South,190,5.0,8.0,22,0.00,,,0.00,697.000000,,2013-08-06 17:43:00,
2013-08-06 11:52:00,73.0,32.0,-100.00,South,190,5.0,8.0,22,0.00,,,0.00,697.000000,,2013-08-06 17:52:00,
2013-08-06 12:32:00,77.0,33.0,-100.00,ESE,118,3.0,10.0,20,0.00,,,0.00,829.000000,,2013-08-06 18:32:00,
2013-08-06 12:43:00,77.0,33.0,-100.00,ESE,118,3.0,10.0,20,0.00,,,0.00,829.000000,,2013-08-06 18:43:00,
2013-08-06 12:52:00,77.0,33.0,-100.00,ESE,118,3.0,10.0,20,0.00,,,0.00,829.000000,,2013-08-06 18:52:00,
2013-08-06 13:21:00,78.0,30.0,-100.00,WSW,243,12.0,26.0,17,0.00,,,0.00,918.000000,,2013-08-06 19:21:00,
2013-08-06 13:32:00,78.0,30.0,-100.00,WSW,243,12.0,26.0,17,0.00,,,0.00,918.000000,,2013-08-06 19:32:00,
2013-08-06 13:42:00,78.0,30.0,-100.00,WSW,243,12.0,26.0,17,0.00,,,0.00,918.000000,,2013-08-06 19:42:00,
2013-08-06 13:52:00,78.0,30.0,-100.00,WSW,243,12.0,26.0,17,0.00,,,0.00,918.000000,,2013-08-06 19:52:00,
2013-08-06 14:44:00,79.0,29.0,-100.00,NNW,344,9.0,23.0,16,0.00,,,0.00,909.000000,,2013-08-06 20:44:00,
2013-08-06 14:52:00,79.0,29.0,-100.00,NNW,344,9.0,23.0,16,0.00,,,0.00,909.000000,,2013-08-06 20:52:00,
2013-08-06 15:43:00,82.0,31.0,-100.00,WNW,286,6.0,25.0,16,0.00,,,0.00,905.000000,,2013-08-06 21:43:00,
2013-08-06 15:52:00,82.0,31.0,-100.00,WNW,286,6.0,25.0,16,0.00,,,0.00,905.000000,,2013-08-06 21:52:00,
2013-08-06 16:21:00,81.0,27.0,-100.00,WNW,297,7.0,22.0,14,0.00,,,0.00,836.000000,,2013-08-06 22:21:00,
2013-08-06 16:32:00,81.0,27.0,-100.00,WNW,297,7.0,22.0,14,0.00,,,0.00,836.000000,,2013-08-06 22:32:00,
2013-08-06 16:43:00,81.0,27.0,-100.00,WNW,297,7.0,22.0,14,0.00,,,0.00,836.000000,,2013-08-06 22:43:00,
2013-08-06 16:52:00,81.0,27.0,-100.00,WNW,297,7.0,22.0,14,0.00,,,0.00,836.000000,,2013-08-06 22:52:00,
2013-08-06 17:22:00,80.0,28.0,-100.00,WNW,297,8.0,21.0,15,0.00,,,0.00,715.000000,,2013-08-06 23:22:00,
2013-08-06 17:32:00,80.0,28.0,-100.00,WNW,297,8.0,21.0,15,0.00,,,0.00,715.000000,,2013-08-06 23:32:00,
2013-08-06 17:43:00,80.0,28.0,-100.00,WNW,297,8.0,21.0,15,0.00,,,0.00,715.000000,,2013-08-06 23:43:00,
2013-08-06 17:52:00,80.0,28.0,-100.00,WNW,297,8.0,21.0,15,0.00,,,0.00,715.000000,,2013-08-06 23:52:00,
2013-08-06 18:21:00,80.0,28.0,-100.00,SW,229,7.0,15.0,15,0.00,,,0.00,548.000000,,2013-08-07 00:21:00,
2013-08-06 18:32:00,80.0,28.0,-100.00,SW,229,7.0,15.0,15,0.00,,,0.00,548.000000,,2013-08-07 00:32:00,
2013-08-06 18:43:00,80.0,28.0,-100.00,SW,229,7.0,15.0,15,0.00,,,0.00,548.000000,,2013-08-07 00:43:00,
2013-08-06 18:52:00,80.0,28.0,-100.00,SW,229,7.0,15.0,15,0.00,,,0.00,548.000000,,2013-08-07 00:52:00,
2013-08-06 19:43:00,80.0,30.0,-100.00,NNE,21,6.0,15.0,16,0.00,,,0.00,361.000000,,2013-08-07 01:43:00,
2013-08-06 19:52:00,80.0,30.0,-100.00,NNE,21,6.0,15.0,16,0.00,,,0.00,361.000000,,2013-08-07 01:52:00,
2013-08-06 20:22:00,70.0,33.0,-100.00,NNW,329,2.0,11.0,25,0.00,,,0.00,112.000000,,2013-08-07 02:22:00,
2013-08-06 20:33:00,70.0,33.0,-100.00,NNW,329,2.0,11.0,25,0.00,,,0.00,112.000000,,2013-08-07 02:33:00,
2013-08-06 20:43:00,70.0,33.0,-100.00,NNW,329,2.0,11.0,25,0.00,,,0.00,112.000000,,2013-08-07 02:43:00,
2013-08-06 20:53:00,70.0,33.0,-100.00,NNW,329,2.0,11.0,25,0.00,,,0.00,112.000000,,2013-08-07 02:53:00,
2013-08-06 21:32:00,61.0,34.0,-100.00,WNW,292,4.0,5.0,36,0.00,,,0.00,8.000000,,2013-08-07 03:32:00,
2013-08-06 21:43:00,61.0,34.0,-100.00,WNW,292,4.0,5.0,36,0.00,,,0.00,8.000000,,2013-08-07 03:43:00,
2013-08-06 21:52:00,61.0,34.0,-100.00,WNW,292,4.0,5.0,36,0.00,,,0.00,8.000000,,2013-08-07 03:52:00,
2013-08-06 22:33:00,57.0,34.0,-100.00,WNW,291,1.0,4.0,41,0.00,,,0.00,1.000000,,2013-08-07 04:33:00,
2013-08-06 22:43:00,57.0,34.0,-100.00,WNW,291,1.0,4.0,41,0.00,,,0.00,1.000000,,2013-08-07 04:43:00,
2013-08-06 22:52:00,57.0,34.0,-100.00,WNW,291,1.0,4.0,41,0.00,,,0.00,1.000000,,2013-08-07 04:52:00,
2013-08-06 23:22:00,56.0,33.0,-100.00,SSW,194,3.0,4.0,42,0.00,,,0.00,1.000000,,2013-08-07 05:22:00,
2013-08-06 23:32:00,56.0,33.0,-100.00,SSW,194,3.0,4.0,42,0.00,,,0.00,1.000000,,2013-08-07 05:32:00,
2013-08-06 23:43:00,56.0,33.0,-100.00,SSW,194,3.0,4.0,42,0.00,,,0.00,1.000000,,2013-08-07 05:43:00,
2013-08-06 23:52:00,56.0,33.0,-100.00,SSW,194,3.0,4.0,42,0.00,,,0.00,1.000000,,2013-08-07 05:52:00,